| time (UTC) | temp C | wind direction | speed KPH | gust KPH | rain 1hr cm | rain 24hr cm | rain mn cm | humidity % | barometer mb |
| 20260505230949 | 22 | 201 | 3.2 | 9.7 | 0.00 | 0.00 | 0.00 | 70 | 1004.3 |
| 20260505230447 | 22 | 294 | 3.2 | 14.5 | 0.00 | 0.00 | 0.00 | 70 | 1004.3 |
| 20260505225943 | 25 | 324 | 6.4 | 14.5 | 0.00 | 0.00 | 0.00 | 65 | 1004.1 |
| 20260505225440 | 25 | 219 | 4.8 | 8.0 | 0.00 | 0.00 | 0.00 | 68 | 1004.0 |
| 20260505224936 | 25 | 187 | 4.8 | 4.8 | 0.00 | 0.00 | 0.00 | 71 | 1004.0 |
| 20260505224433 | 26 | 90 | 0.0 | 3.2 | 0.00 | 0.00 | 0.00 | 68 | 1003.9 |
| 20260505223930 | 26 | 174 | 1.6 | 3.2 | 0.00 | 0.00 | 0.00 | 70 | 1003.8 |
| 20260505223427 | 26 | 107 | 3.2 | 4.8 | 0.00 | 0.00 | 0.00 | 69 | 1004.0 |
| 20260505222923 | 26 | 157 | 3.2 | 3.2 | 0.00 | 0.00 | 0.00 | 67 | 1003.6 |
| 20260505222420 | 26 | 99 | 0.0 | 6.4 | 0.00 | 0.00 | 0.00 | 66 | 1003.8 |
| 20260505221916 | 26 | 172 | 4.8 | 8.0 | 0.00 | 0.00 | 0.00 | 66 | 1003.9 |
| 20260505221414 | 26 | 241 | 3.2 | 6.4 | 0.00 | 0.00 | 0.00 | 66 | 1003.8 |
| 20260505220910 | 26 | 180 | 3.2 | 4.8 | 0.00 | 0.00 | 0.00 | 67 | 1004.2 |
| 20260505220407 | 26 | 180 | 4.8 | 4.8 | 0.00 | 0.00 | 0.00 | 66 | 1004.2 |
| 20260505215905 | 25 | 159 | 3.2 | 8.0 | 0.00 | 0.00 | 0.00 | 66 | 1004.0 |
| 20260505215403 | 25 | 185 | 8.0 | 12.9 | 0.00 | 0.00 | 0.00 | 65 | 1004.3 |
| 20260505214900 | 26 | 152 | 3.2 | 6.4 | 0.00 | 0.00 | 0.00 | 66 | 1004.4 |
| 20260505214358 | 26 | 184 | 3.2 | 4.8 | 0.00 | 0.00 | 0.00 | 64 | 1004.1 |
| 20260505213855 | 26 | 185 | 4.8 | 4.8 | 0.00 | 0.00 | 0.00 | 63 | 1004.0 |
| 20260505213353 | 26 | 165 | 3.2 | 3.2 | 0.00 | 0.00 | 0.00 | 63 | 1003.9 |
| 20260505212849 | 26 | 167 | 4.8 | 4.8 | 0.00 | 0.00 | 0.00 | 63 | 1004.0 |
| 20260505212346 | 26 | 167 | 4.8 | 6.4 | 0.00 | 0.00 | 0.00 | 63 | 1004.0 |
| 20260505211842 | 26 | 162 | 6.4 | 9.7 | 0.00 | 0.00 | 0.00 | 64 | 1004.2 |
| 20260505211340 | 26 | 132 | 3.2 | 8.0 | 0.00 | 0.00 | 0.00 | 63 | 1004.0 |
| 20260505210836 | 26 | 170 | 4.8 | 6.4 | 0.00 | 0.00 | 0.00 | 63 | 1004.1 |
| 20260505210333 | 26 | 143 | 4.8 | 8.0 | 0.00 | 0.00 | 0.00 | 64 | 1004.3 |
| 20260505205830 | 26 | 170 | 4.8 | 4.8 | 0.00 | 0.00 | 0.00 | 66 | 1004.8 |
| 20260505205328 | 25 | 143 | 4.8 | 8.0 | 0.00 | 0.00 | 0.00 | 66 | 1004.7 |
| 20260505204824 | 26 | 194 | 1.6 | 8.0 | 0.00 | 0.00 | 0.00 | 65 | 1004.6 |
| 20260505204323 | 26 | 198 | 3.2 | 6.4 | 0.00 | 0.00 | 0.00 | 66 | 1004.7 |
| 20260505203820 | 26 | 243 | 4.8 | 4.8 | 0.00 | 0.00 | 0.00 | 65 | 1004.6 |
| 20260505203316 | 26 | 216 | 3.2 | 9.7 | 0.00 | 0.00 | 0.00 | 65 | 1004.5 |
| 20260505202812 | 26 | 209 | 1.6 | 6.4 | 0.00 | 0.00 | 0.00 | 64 | 1004.5 |
| 20260505202309 | 26 | 194 | 6.4 | 8.0 | 0.00 | 0.00 | 0.00 | 64 | 1004.6 |
| 20260505201805 | 26 | 190 | 3.2 | 3.2 | 0.00 | 0.00 | 0.00 | 64 | 1004.7 |
| 20260505201303 | 26 | 154 | 0.0 | 6.4 | 0.00 | 0.00 | 0.00 | 66 | 1004.7 |
| 20260505200801 | 25 | 154 | 1.6 | 9.7 | 0.00 | 0.00 | 0.00 | 67 | 1004.5 |
| 20260505200258 | 25 | 191 | 8.0 | 8.0 | 0.00 | 0.00 | 0.00 | 67 | 1004.6 |
| 20260505195753 | 25 | 154 | 4.8 | 11.3 | 0.00 | 0.00 | 0.00 | 67 | 1004.9 |
| 20260505195251 | 25 | 251 | 0.0 | 4.8 | 0.00 | 0.00 | 0.00 | 67 | 1004.9 |
| 20260505194748 | 25 | 233 | 3.2 | 8.0 | 0.00 | 0.00 | 0.00 | 68 | 1005.0 |
| 20260505194245 | 25 | 170 | 4.8 | 8.0 | 0.00 | 0.00 | 0.00 | 69 | 1005.3 |
| 20260505193740 | 25 | 194 | 4.8 | 11.3 | 0.00 | 0.00 | 0.00 | 68 | 1005.2 |
| 20260505193238 | 25 | 180 | 9.7 | 9.7 | 0.00 | 0.00 | 0.00 | 67 | 1005.3 |
| 20260505192736 | 25 | 187 | 8.0 | 11.3 | 0.00 | 0.00 | 0.00 | 68 | 1005.4 |
| 20260505192233 | 25 | 199 | 6.4 | 11.3 | 0.00 | 0.00 | 0.00 | 69 | 1005.4 |
| 20260505191731 | 25 | 152 | 4.8 | 6.4 | 0.00 | 0.00 | 0.00 | 68 | 1005.0 |
| 20260505191230 | 25 | 173 | 0.0 | 8.0 | 0.00 | 0.00 | 0.00 | 68 | 1005.0 |
| 20260505190725 | 25 | 186 | 6.4 | 8.0 | 0.00 | 0.00 | 0.00 | 67 | 1005.1 |
| 20260505190225 | 25 | 189 | 8.0 | 9.7 | 0.00 | 0.00 | 0.00 | 68 | 1005.1 |
| 20260505185722 | 25 | 197 | 6.4 | 12.9 | 0.00 | 0.00 | 0.00 | 69 | 1005.3 |
| 20260505185219 | 25 | 175 | 12.9 | 12.9 | 0.00 | 0.00 | 0.00 | 68 | 1004.9 |
| 20260505184714 | 24 | 176 | 4.8 | 8.0 | 0.00 | 0.00 | 0.00 | 69 | 1005.0 |
| 20260505184212 | 25 | 150 | 3.2 | 8.0 | 0.00 | 0.00 | 0.00 | 68 | 1005.0 |
| 20260505183709 | 24 | 195 | 4.8 | 9.7 | 0.00 | 0.00 | 0.00 | 70 | 1005.0 |
| 20260505183207 | 24 | 176 | 6.4 | 17.7 | 0.00 | 0.00 | 0.00 | 69 | 1005.2 |
| 20260505182702 | 24 | 184 | 20.9 | 20.9 | 0.00 | 0.00 | 0.00 | 68 | 1005.1 |
| 20260505182200 | 24 | 178 | 6.4 | 14.5 | 0.00 | 0.00 | 0.00 | 69 | 1004.9 |
| 20260505181656 | 24 | 168 | 1.6 | 12.9 | 0.00 | 0.00 | 0.00 | 70 | 1004.8 |
| 20260505181154 | 24 | 176 | 6.4 | 11.3 | 0.00 | 0.00 | 0.00 | 70 | 1005.0 |
| 20260505180650 | 24 | 168 | 3.2 | 11.3 | 0.00 | 0.00 | 0.00 | 70 | 1004.8 |
| 20260505180147 | 23 | 195 | 9.7 | 9.7 | 0.00 | 0.00 | 0.00 | 71 | 1005.1 |
| 20260505175643 | 23 | 172 | 0.0 | 4.8 | 0.00 | 0.00 | 0.00 | 71 | 1005.0 |
| 20260505175139 | 23 | 135 | 9.7 | 14.5 | 0.00 | 0.00 | 0.00 | 71 | 1005.2 |
| 20260505174636 | 24 | 159 | 9.7 | 16.1 | 0.00 | 0.00 | 0.00 | 70 | 1005.2 |
| 20260505174132 | 24 | 161 | 3.2 | 9.7 | 0.00 | 0.00 | 0.00 | 70 | 1005.1 |
| 20260505173629 | 24 | 169 | 8.0 | 11.3 | 0.00 | 0.00 | 0.00 | 70 | 1005.2 |
| 20260505173126 | 23 | 173 | 1.6 | 8.0 | 0.00 | 0.00 | 0.00 | 71 | 1005.1 |
| 20260505172623 | 23 | 170 | 4.8 | 11.3 | 0.00 | 0.00 | 0.00 | 71 | 1005.3 |
| 20260505172120 | 23 | 163 | 4.8 | 9.7 | 0.00 | 0.00 | 0.00 | 72 | 1005.1 |
| 20260505171615 | 23 | 178 | 6.4 | 14.5 | 0.00 | 0.00 | 0.00 | 72 | 1005.2 |
| 20260505171112 | 23 | 181 | 9.7 | 11.3 | 0.00 | 0.00 | 0.00 | 71 | 1005.4 |
| 20260505170609 | 23 | 194 | 4.8 | 9.7 | 0.00 | 0.00 | 0.00 | 72 | 1005.2 |
| 20260505170105 | 23 | 204 | 9.7 | 16.1 | 0.00 | 0.00 | 0.00 | 71 | 1005.2 |
| 20260505165600 | 23 | 214 | 4.8 | 9.7 | 0.00 | 0.00 | 0.00 | 72 | 1005.3 |
| 20260505165056 | 23 | 188 | 8.0 | 9.7 | 0.00 | 0.00 | 0.00 | 71 | 1005.4 |
| 20260505164552 | 23 | 133 | 4.8 | 14.5 | 0.00 | 0.00 | 0.00 | 71 | 1005.5 |
| 20260505164050 | 23 | 78 | 4.8 | 8.0 | 0.00 | 0.00 | 0.00 | 75 | 1005.5 |
| 20260505163549 | 22 | 60 | 3.2 | 11.3 | 0.00 | 0.00 | 0.00 | 77 | 1005.2 |
| 20260505163045 | 22 | 82 | 8.0 | 8.0 | 0.00 | 0.00 | 0.00 | 77 | 1005.5 |
| 20260505162538 | 22 | 90 | 6.4 | 11.3 | 0.00 | 0.00 | 0.00 | 77 | 1005.5 |
| 20260505162035 | 21 | 118 | 9.7 | 16.1 | 0.00 | 0.00 | 0.00 | 77 | 1005.4 |
| 20260505161532 | 21 | 107 | 14.5 | 16.1 | 0.00 | 0.00 | 0.00 | 78 | 1005.3 |
| 20260505161029 | 21 | 80 | 6.4 | 14.5 | 0.00 | 0.00 | 0.00 | 79 | 1005.4 |
| 20260505160527 | 21 | 139 | 0.0 | 12.9 | 0.00 | 0.00 | 0.00 | 80 | 1005.7 |
| 20260505153003 | 20 | 64 | 12.9 | 17.7 | 0.00 | 0.00 | 0.00 | 83 | 1005.7 |
| 20260505152501 | 20 | 36 | 4.8 | 16.1 | 0.00 | 0.00 | 0.00 | 84 | 1005.7 |
| 20260505151955 | 19 | 90 | 8.0 | 11.3 | 0.00 | 0.00 | 0.00 | 85 | 1005.9 |
| 20260505151451 | 18 | 84 | 9.7 | 16.1 | 0.00 | 0.00 | 0.00 | 86 | 1006.1 |
| 20260505150949 | 18 | 81 | 8.0 | 14.5 | 0.00 | 0.00 | 0.00 | 86 | 1006.1 |
| 20260505150445 | 18 | 80 | 3.2 | 16.1 | 0.00 | 0.00 | 0.00 | 86 | 1006.1 |
| 20260505140416 | 17 | 53 | 9.7 | 20.9 | 0.00 | 0.00 | 0.00 | 87 | 1006.5 |
| 20260505124829 | 18 | 99 | 8.0 | 11.3 | 0.00 | 0.00 | 0.00 | 80 | 1006.1 |
| 20260505124326 | 18 | 71 | 9.7 | 14.5 | 0.00 | 0.00 | 0.00 | 78 | 1006.4 |
| 20260505123822 | 18 | 79 | 6.4 | 11.3 | 0.00 | 0.00 | 0.00 | 77 | 1006.0 |
| 20260505123319 | 18 | 90 | 6.4 | 9.7 | 0.00 | 0.00 | 0.00 | 77 | 1006.2 |
| 20260505122815 | 18 | 20 | 14.5 | 14.5 | 0.00 | 0.00 | 0.00 | 76 | 1006.2 |
| 20260505122312 | 19 | 101 | 3.2 | 11.3 | 0.00 | 0.00 | 0.00 | 75 | 1006.0 |
| 20260505121809 | 18 | 77 | 8.0 | 8.0 | 0.00 | 0.00 | 0.00 | 75 | 1006.1 |
| 20260505121306 | 18 | 34 | 4.8 | 9.7 | 0.00 | 0.00 | 0.00 | 75 | 1005.9 |
| 20260505120802 | 19 | 94 | 8.0 | 11.3 | 0.00 | 0.00 | 0.00 | 74 | 1005.8 |
| 20260505120258 | 19 | 70 | 4.8 | 11.3 | 0.00 | 0.00 | 0.00 | 74 | 1005.6 |
| 20260505115757 | 19 | 72 | 4.8 | 11.3 | 0.00 | 0.00 | 0.00 | 74 | 1005.6 |
| 20260505115254 | 19 | 79 | 4.8 | 6.4 | 0.00 | 0.00 | 0.00 | 74 | 1005.5 |
| 20260505114752 | 19 | 75 | 3.2 | 9.7 | 0.00 | 0.00 | 0.00 | 73 | 1005.2 |
| 20260505114248 | 19 | 96 | 1.6 | 11.3 | 0.00 | 0.00 | 0.00 | 73 | 1005.5 |
| 20260505113745 | 19 | 0 | 3.2 | 11.3 | 0.00 | 0.00 | 0.00 | 73 | 1005.5 |
| 20260505113241 | 19 | 48 | 9.7 | 9.7 | 0.00 | 0.00 | 0.00 | 74 | 1005.2 |
| 20260505112737 | 19 | 79 | 6.4 | 9.7 | 0.00 | 0.00 | 0.00 | 73 | 1005.3 |
| 20260505112235 | 19 | 63 | 6.4 | 8.0 | 0.00 | 0.00 | 0.00 | 73 | 1005.3 |
| 20260505111735 | 19 | 95 | 6.4 | 8.0 | 0.00 | 0.00 | 0.00 | 73 | 1005.1 |
| 20260505111231 | 18 | 66 | 4.8 | 4.8 | 0.00 | 0.00 | 0.00 | 74 | 1005.1 |
| 20260505110727 | 18 | 63 | 3.2 | 8.0 | 0.00 | 0.00 | 0.00 | 73 | 1005.0 |
| 20260505110225 | 18 | 102 | 3.2 | 8.0 | 0.00 | 0.00 | 0.00 | 74 | 1004.9 |
| 20260505102200 | 18 | 70 | 8.0 | 11.3 | 0.00 | 0.00 | 0.00 | 74 | 1004.8 |
| 20260505101659 | 18 | 90 | 4.8 | 8.0 | 0.00 | 0.00 | 0.00 | 74 | 1004.6 |
| 20260505101154 | 18 | 87 | 4.8 | 12.9 | 0.00 | 0.00 | 0.00 | 74 | 1004.7 |
| 20260505100651 | 18 | 33 | 3.2 | 9.7 | 0.00 | 0.00 | 0.00 | 74 | 1004.8 |
| 20260505100148 | 18 | 90 | 1.6 | 17.7 | 0.00 | 0.00 | 0.00 | 74 | 1004.7 |
| 20260505095644 | 18 | 86 | 4.8 | 11.3 | 0.00 | 0.00 | 0.00 | 74 | 1004.9 |
| 20260505095142 | 18 | 90 | 4.8 | 9.7 | 0.00 | 0.00 | 0.00 | 74 | 1004.9 |
| 20260505094637 | 18 | 81 | 4.8 | 9.7 | 0.00 | 0.00 | 0.00 | 74 | 1005.0 |
| 20260505094134 | 18 | 102 | 6.4 | 9.7 | 0.00 | 0.00 | 0.00 | 74 | 1004.8 |
| 20260505093630 | 18 | 90 | 8.0 | 9.7 | 0.00 | 0.00 | 0.00 | 74 | 1005.0 |
| 20260505093127 | 18 | 88 | 6.4 | 8.0 | 0.00 | 0.00 | 0.00 | 74 | 1004.8 |
| 20260505092624 | 18 | 27 | 6.4 | 6.4 | 0.00 | 0.00 | 0.00 | 73 | 1004.6 |
| 20260505092123 | 19 | 106 | 0.0 | 8.0 | 0.00 | 0.00 | 0.00 | 72 | 1004.7 |
| 20260505091619 | 19 | 93 | 6.4 | 9.7 | 0.00 | 0.00 | 0.00 | 69 | 1004.7 |
| 20260505091118 | 19 | 60 | 0.0 | 4.8 | 0.00 | 0.00 | 0.00 | 69 | 1004.7 |
| 20260505090615 | 19 | 102 | 3.2 | 6.4 | 0.00 | 0.00 | 0.00 | 69 | 1004.7 |
| 20260505090113 | 19 | 60 | 4.8 | 8.0 | 0.00 | 0.00 | 0.00 | 69 | 1004.6 |
| 20260505085610 | 19 | 74 | 3.2 | 9.7 | 0.00 | 0.00 | 0.00 | 69 | 1004.4 |
| 20260505085109 | 19 | 66 | 8.0 | 8.0 | 0.00 | 0.00 | 0.00 | 69 | 1004.2 |
| 20260505084606 | 19 | 62 | 4.8 | 8.0 | 0.00 | 0.00 | 0.00 | 70 | 1004.6 |
| 20260505084104 | 19 | 94 | 4.8 | 9.7 | 0.00 | 0.00 | 0.00 | 70 | 1004.2 |
| 20260505083601 | 19 | 73 | 6.4 | 6.4 | 0.00 | 0.00 | 0.00 | 70 | 1004.2 |
| 20260505083058 | 19 | 90 | 3.2 | 9.7 | 0.00 | 0.00 | 0.00 | 70 | 1004.2 |
| 20260505082553 | 19 | 63 | 6.4 | 9.7 | 0.00 | 0.00 | 0.00 | 70 | 1004.0 |
| 20260505082051 | 18 | 109 | 0.0 | 3.2 | 0.00 | 0.00 | 0.00 | 71 | 1004.1 |
| 20260505081547 | 18 | 105 | 3.2 | 6.4 | 0.00 | 0.00 | 0.00 | 71 | 1004.2 |
| 20260505081044 | 18 | 63 | 4.8 | 8.0 | 0.00 | 0.00 | 0.00 | 72 | 1004.2 |
| 20260505080540 | 18 | 71 | 3.2 | 8.0 | 0.00 | 0.00 | 0.00 | 72 | 1004.1 |
| 20260505080037 | 18 | 96 | 4.8 | 4.8 | 0.00 | 0.00 | 0.00 | 72 | 1004.0 |
| 20260505075533 | 18 | 67 | 4.8 | 9.7 | 0.00 | 0.00 | 0.00 | 72 | 1004.1 |
| 20260505075030 | 18 | 86 | 3.2 | 6.4 | 0.00 | 0.00 | 0.00 | 72 | 1004.3 |
| 20260505074527 | 18 | 21 | 4.8 | 9.7 | 0.00 | 0.00 | 0.00 | 72 | 1004.2 |
| 20260505074024 | 18 | 100 | 3.2 | 8.0 | 0.00 | 0.00 | 0.00 | 71 | 1004.3 |
| 20260505073521 | 18 | 103 | 1.6 | 8.0 | 0.00 | 0.00 | 0.00 | 72 | 1004.3 |
| 20260505073020 | 19 | 73 | 3.2 | 9.7 | 0.00 | 0.00 | 0.00 | 71 | 1004.6 |
| 20260505072515 | 19 | 76 | 4.8 | 9.7 | 0.00 | 0.00 | 0.00 | 71 | 1004.8 |
| 20260505072011 | 19 | 87 | 4.8 | 12.9 | 0.00 | 0.00 | 0.00 | 71 | 1004.7 |
| 20260505071507 | 19 | 52 | 4.8 | 6.4 | 0.00 | 0.00 | 0.00 | 71 | 1005.1 |
| 20260505071006 | 19 | 10 | 4.8 | 4.8 | 0.00 | 0.00 | 0.00 | 71 | 1005.0 |
| 20260505070503 | 19 | 103 | 1.6 | 14.5 | 0.00 | 0.00 | 0.00 | 71 | 1005.1 |
| 20260505065958 | 19 | 90 | 4.8 | 9.7 | 0.00 | 0.00 | 0.00 | 72 | 1005.2 |
| 20260505065454 | 18 | 90 | 6.4 | 8.0 | 0.00 | 0.00 | 0.00 | 72 | 1005.6 |
| 20260505064951 | 18 | 115 | 3.2 | 8.0 | 0.00 | 0.00 | 0.00 | 72 | 1005.6 |
| 20260505064448 | 19 | 82 | 6.4 | 6.4 | 0.00 | 0.00 | 0.00 | 71 | 1005.8 |
| 20260505063947 | 19 | 45 | 4.8 | 6.4 | 0.00 | 0.00 | 0.00 | 73 | 1005.9 |
| 20260505063442 | 18 | 74 | 0.0 | 3.2 | 0.00 | 0.00 | 0.00 | 74 | 1006.0 |
| 20260505062939 | 18 | 114 | 1.6 | 3.2 | 0.00 | 0.00 | 0.00 | 74 | 1005.6 |
| 20260505062436 | 18 | 77 | 4.8 | 4.8 | 0.00 | 0.00 | 0.00 | 74 | 1005.6 |
| 20260505061933 | 18 | 73 | 3.2 | 4.8 | 0.00 | 0.00 | 0.00 | 77 | 1005.9 |
| 20260505061431 | 18 | 48 | 3.2 | 6.4 | 0.00 | 0.00 | 0.00 | 74 | 1006.1 |
| 20260505060928 | 18 | 4 | 3.2 | 4.8 | 0.00 | 0.00 | 0.00 | 73 | 1005.9 |
| 20260505060425 | 18 | 45 | 4.8 | 4.8 | 0.00 | 0.00 | 0.00 | 73 | 1005.7 |
| 20260505055922 | 18 | 86 | 4.8 | 11.3 | 0.00 | 0.00 | 0.00 | 72 | 1005.6 |
| 20260505055418 | 19 | 90 | 3.2 | 8.0 | 0.00 | 0.00 | 0.00 | 70 | 1005.9 |
| 20260505054915 | 19 | 74 | 3.2 | 8.0 | 0.00 | 0.00 | 0.00 | 69 | 1005.6 |
| 20260505054412 | 20 | 84 | 4.8 | 12.9 | 0.00 | 0.00 | 0.00 | 68 | 1006.2 |
| 20260505053910 | 20 | 131 | 0.0 | 4.8 | 0.00 | 0.00 | 0.00 | 68 | 1006.9 |
| 20260505053407 | 20 | 113 | 4.8 | 4.8 | 0.00 | 0.00 | 0.00 | 67 | 1007.3 |
| 20260505052903 | 20 | 96 | 3.2 | 4.8 | 0.00 | 0.00 | 0.00 | 67 | 1007.4 |
| 20260505052400 | 19 | 102 | 3.2 | 4.8 | 0.00 | 0.00 | 0.00 | 68 | 1007.7 |
| 20260505051858 | 19 | 352 | 4.8 | 6.4 | 0.00 | 0.00 | 0.00 | 68 | 1008.0 |
| 20260505051355 | 19 | 348 | 4.8 | 6.4 | 0.00 | 0.00 | 0.00 | 68 | 1007.3 |
| 20260505050853 | 19 | 0 | 3.2 | 4.8 | 0.00 | 0.00 | 0.00 | 69 | 1007.1 |
| 20260505050351 | 19 | 4 | 3.2 | 4.8 | 0.00 | 0.00 | 0.00 | 69 | 1006.9 |
| 20260505041319 | 20 | 74 | 0.0 | 4.8 | 0.00 | 0.00 | 0.00 | 65 | 1007.2 |
| 20260505040815 | 20 | 90 | 3.2 | 3.2 | 0.00 | 0.00 | 0.00 | 63 | 1007.1 |
| 20260505040313 | 20 | 114 | 0.0 | 1.6 | 0.00 | 0.00 | 0.00 | 63 | 1007.2 |
| 20260505035809 | 20 | 165 | 0.0 | 0.0 | 0.00 | 0.00 | 0.00 | 63 | 1007.1 |
| 20260505035305 | 20 | 75 | 0.0 | 3.2 | 0.00 | 0.00 | 0.00 | 62 | 1007.3 |
| 20260505034803 | 20 | 162 | 0.0 | 1.6 | 0.00 | 0.00 | 0.00 | 63 | 1007.2 |
| 20260505034259 | 20 | 114 | 0.0 | 1.6 | 0.00 | 0.00 | 0.00 | 63 | 1007.4 |
| 20260505033756 | 20 | 90 | 0.0 | 4.8 | 0.00 | 0.00 | 0.00 | 62 | 1007.6 |
| 20260505033254 | 20 | 90 | 1.6 | 3.2 | 0.00 | 0.00 | 0.00 | 65 | 1007.7 |
| 20260505032752 | 20 | 195 | 0.0 | 0.0 | 0.00 | 0.00 | 0.00 | 64 | 1007.4 |
| 20260505032247 | 20 | 188 | 0.0 | 1.6 | 0.00 | 0.00 | 0.00 | 64 | 1007.6 |
| 20260505031745 | 20 | 172 | 0.0 | 0.0 | 0.00 | 0.00 | 0.00 | 63 | 1007.7 |
| 20260505031241 | 20 | 66 | 0.0 | 0.0 | 0.00 | 0.00 | 0.00 | 63 | 1007.6 |
| 20260505030738 | 20 | 180 | 0.0 | 3.2 | 0.00 | 0.00 | 0.00 | 64 | 1007.4 |
| 20260505030234 | 20 | 172 | 0.0 | 0.0 | 0.00 | 0.00 | 0.00 | 64 | 1007.3 |
| 20260505025730 | 20 | 172 | 0.0 | 0.0 | 0.00 | 0.00 | 0.00 | 62 | 1007.6 |
| 20260505025228 | 21 | 172 | 0.0 | 0.0 | 0.00 | 0.00 | 0.00 | 61 | 1007.8 |
| 20260505024726 | 21 | 180 | 0.0 | 0.0 | 0.00 | 0.00 | 0.00 | 61 | 1007.9 |
| 20260505024223 | 21 | 180 | 0.0 | 0.0 | 0.00 | 0.00 | 0.00 | 60 | 1007.7 |
| 20260505023720 | 21 | 180 | 0.0 | 1.6 | 0.00 | 0.00 | 0.00 | 59 | 1007.6 |
| 20260505023218 | 21 | 166 | 0.0 | 1.6 | 0.00 | 0.00 | 0.00 | 58 | 1007.7 |
| 20260505022715 | 21 | 278 | 0.0 | 3.2 | 0.00 | 0.00 | 0.00 | 58 | 1007.5 |
| 20260505022212 | 21 | 102 | 0.0 | 0.0 | 0.00 | 0.00 | 0.00 | 58 | 1007.4 |
| 20260505021708 | 21 | 102 | 0.0 | 0.0 | 0.00 | 0.00 | 0.00 | 57 | 1007.3 |
| 20260505021206 | 21 | 117 | 0.0 | 1.6 | 0.00 | 0.00 | 0.00 | 57 | 1007.4 |
| 20260505020701 | 21 | 254 | 0.0 | 0.0 | 0.00 | 0.00 | 0.00 | 58 | 1007.2 |
| 20260505020157 | 21 | 180 | 0.0 | 1.6 | 0.00 | 0.00 | 0.00 | 57 | 1007.1 |
| 20260505015654 | 22 | 221 | 0.0 | 3.2 | 0.00 | 0.00 | 0.00 | 56 | 1007.2 |
| 20260505015151 | 22 | 173 | 0.0 | 1.6 | 0.00 | 0.00 | 0.00 | 56 | 1007.4 |
| 20260505014648 | 22 | 180 | 3.2 | 3.2 | 0.00 | 0.00 | 0.00 | 55 | 1007.1 |
| 20260505014145 | 22 | 188 | 0.0 | 0.0 | 0.00 | 0.00 | 0.00 | 54 | 1006.9 |
| 20260505013642 | 22 | 191 | 0.0 | 3.2 | 0.00 | 0.00 | 0.00 | 54 | 1006.8 |
| 20260505013139 | 22 | 198 | 1.6 | 3.2 | 0.00 | 0.00 | 0.00 | 53 | 1007.0 |
| 20260505012637 | 23 | 186 | 1.6 | 4.8 | 0.00 | 0.00 | 0.00 | 52 | 1006.7 |
| 20260505012134 | 23 | 172 | 3.2 | 4.8 | 0.00 | 0.00 | 0.00 | 52 | 1006.6 |
| 20260505011630 | 23 | 204 | 3.2 | 9.7 | 0.00 | 0.00 | 0.00 | 51 | 1006.5 |
| 20260505011127 | 23 | 180 | 0.0 | 6.4 | 0.00 | 0.00 | 0.00 | 51 | 1006.5 |
| 20260505010622 | 23 | 178 | 9.7 | 9.7 | 0.00 | 0.00 | 0.00 | 50 | 1006.4 |
| 20260505010119 | 23 | 175 | 1.6 | 11.3 | 0.00 | 0.00 | 0.00 | 51 | 1006.3 |
| 20260505005615 | 23 | 185 | 4.8 | 11.3 | 0.00 | 0.00 | 0.00 | 50 | 1006.3 |
| 20260505005112 | 23 | 189 | 6.4 | 11.3 | 0.00 | 0.00 | 0.00 | 51 | 1006.4 |
| 20260505004609 | 23 | 195 | 3.2 | 8.0 | 0.00 | 0.00 | 0.00 | 52 | 1006.4 |
| 20260505004106 | 23 | 180 | 4.8 | 6.4 | 0.00 | 0.00 | 0.00 | 51 | 1006.4 |
| 20260505003603 | 24 | 170 | 4.8 | 8.0 | 0.00 | 0.00 | 0.00 | 50 | 1006.5 |
| 20260505003101 | 24 | 180 | 3.2 | 6.4 | 0.00 | 0.00 | 0.00 | 51 | 1006.5 |
| 20260505002556 | 24 | 149 | 4.8 | 6.4 | 0.00 | 0.00 | 0.00 | 49 | 1006.4 |
| 20260505002055 | 25 | 180 | 6.4 | 8.0 | 0.00 | 0.00 | 0.00 | 49 | 1006.4 |
| 20260505001552 | 25 | 190 | 6.4 | 9.7 | 0.00 | 0.00 | 0.00 | 49 | 1006.4 |
| 20260505001049 | 25 | 180 | 4.8 | 9.7 | 0.00 | 0.00 | 0.00 | 47 | 1006.5 |
| 20260505000546 | 25 | 183 | 4.8 | 9.7 | 0.00 | 0.00 | 0.00 | 47 | 1006.5 |
| 20260505000044 | 25 | 179 | 8.0 | 17.7 | 0.00 | 0.00 | 0.00 | 46 | 1006.5 |
| 20260504235540 | 25 | 158 | 4.8 | 11.3 | 0.00 | 0.00 | 0.00 | 46 | 1006.5 |
| 20260504235037 | 25 | 169 | 6.4 | 16.1 | 0.00 | 0.00 | 0.00 | 46 | 1006.3 |
| 20260504234534 | 25 | 177 | 8.0 | 12.9 | 0.00 | 0.00 | 0.00 | 45 | 1006.7 |
| 20260504234031 | 25 | 165 | 9.7 | 9.7 | 0.00 | 0.00 | 0.00 | 46 | 1006.5 |
| 20260504233526 | 25 | 174 | 4.8 | 16.1 | 0.00 | 0.00 | 0.00 | 45 | 1006.8 |
| 20260504233023 | 25 | 171 | 6.4 | 16.1 | 0.00 | 0.00 | 0.00 | 46 | 1006.6 |
| 20260504232520 | 25 | 180 | 9.7 | 11.3 | 0.00 | 0.00 | 0.00 | 45 | 1006.8 |
| 20260504232018 | 25 | 169 | 8.0 | 14.5 | 0.00 | 0.00 | 0.00 | 46 | 1006.8 |
| 20260504231514 | 25 | 152 | 8.0 | 27.4 | 0.00 | 0.00 | 0.00 | 45 | 1006.5 |